Meeker, CO

5:35 PM MST on November 23, 2017 (GMT -0700)
Meeker

Weather History for KEEO - December, 2013

Change the Weather History Date:

Sunday, December 1, 2013

  Actual Average Record
Temperature  
Mean Temperature 31 °F 25 °F  
Max Temperature 39 °F 38 °F 57 °F (1998)
Min Temperature 22 °F 13 °F -9 °F (2015)
Degree Days  
Heating Degree Days 34 40  
Month to date heating degree days 34 40  
Since 1 July heating degree days 1932 1976  
Cooling Degree Days 0 0  
Month to date cooling degree days 0 0  
Year to date cooling degree days 324 172  
Moisture  
Dew Point 23 °F    
Average Humidity 80    
Maximum Humidity 100    
Minimum Humidity 59    
Precipitation  
Precipitation 0.00 in 0.04 in 0.68 in (2007)
Month to date precipitation 0.00 0.04  
Year to date precipitation 17.00 14.99  
Sea Level Pressure  
Sea Level Pressure 30.34 in    
Wind  
Wind Speed 6 mph (South)    
Max Wind Speed 18 mph    
Max Gust Speed 23 mph    
Visibility 7 miles    
Events      
T = Trace of Precipitation, MM = Missing Value Source: NWS Daily Summary

Daily Weather History Graph

Daily Weather History Graph

Search for Another Location

Airport or City:

Trip Planner

Search our weather history database for the weather conditions in past years. The results will help you decide how hot, cold, wet, or windy it might be!

Date:

Astronomy

Dec. 01, 2013 Rise Set
Actual Time 7:14 AM MST 4:46 PM MST
Civil Twilight 6:44 AM MST 5:16 PM MST
Nautical Twilight 6:10 AM MST 5:50 PM MST
Astronomical Twilight 5:38 AM MST 6:23 PM MST
Moon 5:36 AM MST (12/1) 3:59 PM MST (12/1)
Length of Visible Light 10h 32m
Length of Day
9h 32m
Waning Crescent, 2% of the Moon is Illuminated
Dec 1
Waning Crescent
Dec 2
New
Dec 9
First Quarter
Dec 17
Full
Dec 25
Last Quarter

Hourly Weather History & Observations

Time (MST) Temp. Windchill Dew Point Humidity Pressure Visibility Wind Dir Wind Speed Gust Speed Precip Events Conditions
12:53 AM 23.0 °F - 21.9 °F 96% 30.40 in 4.0 mi Calm Calm - N/A   Overcast
1:53 AM 23.0 °F 17.0 °F 21.9 °F 96% 30.40 in 7.0 mi NE 4.6 mph - N/A   Overcast
2:53 AM 23.0 °F - 21.9 °F 96% 30.42 in 2.0 mi Calm Calm - N/A   Overcast
3:02 AM 23.0 °F - 21.2 °F 93% 30.33 in 1.8 mi Calm Calm - N/A   Overcast
3:19 AM 23.0 °F - 21.2 °F 93% 30.32 in 2.5 mi Calm Calm - N/A   Overcast
3:53 AM 23.0 °F 15.8 °F 21.9 °F 96% 30.40 in 3.0 mi ESE 5.8 mph - N/A   Overcast
4:53 AM 21.9 °F 15.7 °F 21.0 °F 96% 30.43 in 2.0 mi SE 4.6 mph - N/A   Overcast
5:02 AM 21.2 °F 13.6 °F 21.2 °F 100% 30.32 in 1.8 mi SE 5.8 mph - N/A   Overcast
5:36 AM 21.2 °F 13.6 °F 21.2 °F 100% 30.33 in 0.8 mi SE 5.8 mph - N/A   Overcast
5:53 AM 21.9 °F 15.7 °F 21.9 °F 100% 30.44 in 1.0 mi ESE 4.6 mph - N/A   Overcast
6:03 AM 23.0 °F 17.0 °F 21.2 °F 93% 30.33 in 2.0 mi ESE 4.6 mph - N/A   Overcast
6:16 AM 21.2 °F 11.7 °F 21.2 °F 100% 30.33 in 6.0 mi ESE 8.1 mph - N/A   Overcast
6:53 AM 21.9 °F 17.2 °F 21.0 °F 96% 30.45 in 10.0 mi ESE 3.5 mph - N/A   Overcast
7:53 AM 23.0 °F - 21.9 °F 96% 30.45 in 10.0 mi Calm Calm - N/A   Overcast
8:53 AM 23.0 °F 18.4 °F 21.9 °F 96% 30.46 in 10.0 mi SSE 3.5 mph - N/A   Overcast
9:30 AM 26.6 °F 22.6 °F 21.2 °F 80% 30.35 in 10.0 mi NNE 3.5 mph - N/A   Scattered Clouds
9:44 AM 24.8 °F 20.5 °F 21.2 °F 86% 30.35 in 10.0 mi NNE 3.5 mph - N/A   Mostly Cloudy
9:53 AM 26.1 °F - 21.9 °F 84% 30.45 in 10.0 mi Calm Calm - N/A   Mostly Cloudy
10:00 AM 24.8 °F - 21.2 °F 86% 30.35 in 10.0 mi Calm Calm - N/A   Scattered Clouds
10:53 AM 27.0 °F - 23.0 °F 85% 30.42 in 10.0 mi Calm Calm - N/A   Clear
11:53 AM 32.0 °F - 25.0 °F 75% 30.36 in 10.0 mi Calm Calm - N/A   Partly Cloudy
12:53 PM 37.0 °F - 27.0 °F 67% 30.30 in 10.0 mi Calm Calm - N/A   Mostly Cloudy
1:53 PM 37.9 °F 28.5 °F 27.0 °F 65% 30.26 in 10.0 mi SSW 17.3 mph - N/A   Overcast
2:53 PM 39.0 °F 31.8 °F 27.0 °F 62% 30.25 in 10.0 mi SSW 11.5 mph - N/A   Scattered Clouds
3:53 PM 37.9 °F 30.9 °F 26.1 °F 62% 30.24 in 10.0 mi SSW 10.4 mph - N/A   Scattered Clouds
4:53 PM 35.1 °F 26.4 °F 25.0 °F 67% 30.25 in 10.0 mi SW 12.7 mph - N/A   Overcast
5:53 PM 35.1 °F 26.9 °F 24.1 °F 64% 30.25 in 10.0 mi SW 11.5 mph - N/A   Overcast
6:53 PM 34.0 °F 24.2 °F 24.1 °F 67% 30.25 in 10.0 mi SW 15.0 mph - N/A   Overcast
7:53 PM 35.1 °F 26.9 °F 24.1 °F 64% 30.24 in 10.0 mi SW 11.5 mph - N/A   Overcast
8:53 PM 33.1 °F 23.9 °F 24.1 °F 70% 30.25 in 10.0 mi SW 12.7 mph - N/A   Mostly Cloudy
9:53 PM 32.0 °F 26.4 °F 25.0 °F 75% 30.25 in 10.0 mi SW 5.8 mph - N/A   Overcast
10:53 PM 32.0 °F 28.7 °F 25.0 °F 75% 30.23 in 10.0 mi WNW 3.5 mph - N/A   Overcast
11:53 PM 32.0 °F 26.4 °F 25.0 °F 75% 30.21 in 10.0 mi West 5.8 mph - N/A   Mostly Cloudy